Tracking 23440 objects as of 12-Jun-2021
HD Live streaming from Space Station
objects crossing your sky now

ARIANE 2 DEB

Track ARIANE 2 DEB now!


NORAD ID: 33579
Int'l Code: 1989-006BX
Perigee: 935.6 km
Apogee: 35,591.7 km
Inclination: 11.6 °
Period: 641.3 minutes
Semi major axis: 24634 km
RCS: 0.196 m2 (medium)
Launch date: January 27, 1989
Source: France (FR)
Launch site: FRENCH GUIANA (FRGUI)

Note: This is SATELLITE DEBRIS
aabbcc
Your satellite tracking list
Your tracking list is empty




NASA's NSSDC Master Catalog

Two Line Element Set (TLE):
1 33579U 89006BX  21162.11275510  .00000436  00000-0  40735-1 0  9997
2 33579  11.6018   5.6275 7034010 207.1553  83.9960  2.24534764153897
Source of the keplerian elements: AFSPC